Regional Weather Roundup
Issued by NWS

Home | Current Version | Previous Version | Text Only | Print | Product List | Glossary On
Versions: 1 2 3 4 5 6 7 8 9 10 11 12 13 14 15 16 17 18 19 20 21 22 23 24 25 26 27 28 29 30 31 32 33 34 35 36 37 38 39 40 41 42 43 44 45 46 47 48 49 50
000
ASUS43 KLSX 300510
RWRMO

WEATHER SUMMARY FOR MISSOURI
NATIONAL WEATHER SERVICE SPRINGFIELD MO
1200 AM CDT TUE MAY 30 2017

NOTE: "FAIR" INDICATES FEW OR NO CLOUDS BELOW 12,000 FEET WITH NO
       SIGNIFICANT WEATHER AND/OR OBSTRUCTIONS TO VISIBILITY.
       CURRENT SKY AND/OR WEATHER CONDITIONS ARE NOT AVAILABLE FOR
       CHILLICOTHE AND FARMINGTON.

MOZ001>031-035>038-043-044-053-054-300600-
...NORTHERN AND WESTERN MISSOURI...

CITY           SKY/WX    TMP DP  RH WIND       PRES   REMARKS
KANSAS CTY INT PTCLDY    61  45  55 N3        30.05R
KANSAS C DTWN  CLEAR     65  48  54 CALM      30.04R
LEE`S SUMMIT   CLEAR     64  48  56 N8        30.06R
ST JOSEPH      CLEAR     59  46  62 N3        30.05R
CHILLICOTHE      N/A     56  50  80 CALM      30.04R
KIRKSVILLE     PTCLDY    52  32  46 W5        30.01R

$$
MOZ066>068-077>081-088>096-101>105-300600-
...SOUTHWEST MISSOURI...

CITY           SKY/WX    TMP DP  RH WIND       PRES   REMARKS
SPRINGFIELD    CLEAR     64  58  80 NE7       30.04R
JOPLIN         CLEAR     63  58  83 CALM      30.05R
BRANSON        MOCLDY    68  57  68 CALM      30.06R

$$
MOZ032>034-039>042-045>050-055>058-069>072-300600-
...CENTRAL MISSOURI...

CITY           SKY/WX    TMP DP  RH WIND       PRES   REMARKS
COLUMBIA       MOCLDY    65  56  72 NW3       30.02R
JEFFERSON CITY CLEAR     63  55  75 CALM      30.01R
ROLLA          PTCLDY    60  53  77 SW5       30.02R
SEDALIA        CLEAR     65  54  67 NW5       30.04R
WHITEMAN AFB   CLEAR     62  53  73 CALM      30.02R
WARRENSBURG    CLEAR     63  52  67 NW5       30.03R
OSAGE BEACH    CLEAR     60  57  89 CALM      30.03S

$$
MOZ051-052-059>065-300600-
...EAST CENTRAL MISSOURI...

CITY           SKY/WX    TMP DP  RH WIND       PRES   REMARKS
ST LOUIS INTL  PTCLDY    66  58  75 W3        30.00R
SPIRIT OF STL  PTCLDY    60  59  96 CALM      29.99R
ST CHARLES     PTCLDY    61  58  90 N3        29.98R

$$
MOZ072>076-082>087-097>100-106>115-300600-
...SOUTH CENTRAL AND SOUTHEAST MISSOURI...

CITY           SKY/WX    TMP DP  RH WIND       PRES   REMARKS
CAPE GIRARDEAU CLEAR     67  60  78 SW5       29.99R
FARMINGTON     CLEAR     59  57  93 SW3       30.03R
POPLAR BLUFF   PTCLDY    70  62  76 SW3       30.00R
WEST PLAINS    CLEAR     60  58  92 CALM      30.05S

$$




USA.gov is the U.S. government's official web portal to all federal, state and local government web resources and services.